Alice, TX

5:36 PM CST on December 15, 2017 (GMT -0600)
Alice International

Weather History for KALI - August, 2013

Change the Weather History Date:

Thursday, August 29, 2013

  Actual Average Record
Temperature  
Mean Temperature 86 °F -  
Max Temperature 99 °F 92 °F 107 °F (2011)
Min Temperature 73 °F 73 °F 66 °F (2015)
Cooling Degree Days 21    
Growing Degree Days 36 (Base 50)    
Moisture  
Dew Point 72 °F    
Average Humidity 70    
Maximum Humidity 100    
Minimum Humidity 31    
Precipitation  
Precipitation 0.00 in - - ()
Sea Level Pressure  
Sea Level Pressure 30.01 in    
Wind  
Wind Speed 3 mph (ESE)    
Max Wind Speed 15 mph    
Max Gust Speed 22 mph    
Visibility 10 miles    
Events      
Averages and records for this station are not official NWS values.
T = Trace of Precipitation, MM = Missing Value Source: NWS Daily Summary

Daily Weather History Graph

Daily Weather History Graph

Search for Another Location

Airport or City:

Trip Planner

Search our weather history database for the weather conditions in past years. The results will help you decide how hot, cold, wet, or windy it might be!

Date:

Astronomy

Aug. 29, 2013 Rise Set
Actual Time 7:09 AM CDT 7:55 PM CDT
Civil Twilight 6:45 AM CDT 8:19 PM CDT
Nautical Twilight 6:17 AM CDT 8:47 PM CDT
Astronomical Twilight 5:48 AM CDT 9:16 PM CDT
Moon 1:17 AM CDT (8/29) 3:10 PM CDT (8/29)
Length of Visible Light 13h 33m
Length of Day
12h 46m
Last Quarter, 38% of the Moon is Illuminated
Aug 29
Last Quarter
Sep 5
New
Sep 12
First Quarter
Sep 19
Full
Sep 26
Last Quarter

Hourly Weather History & Observations

Time (CDT) Temp. Heat Index Dew Point Humidity Pressure Visibility Wind Dir Wind Speed Gust Speed Precip Events Conditions
12:53 AM 78.1 °F - 75.0 °F 90% 30.02 in 10.0 mi Calm Calm - N/A   Clear
1:53 AM 78.1 °F - 75.0 °F 90% 30.02 in 10.0 mi Calm Calm - N/A   Clear
2:53 AM 77.0 °F - 75.0 °F 94% 30.02 in 10.0 mi Calm Calm - N/A   Partly Cloudy
3:53 AM 75.9 °F - 75.0 °F 97% 30.02 in 10.0 mi Calm Calm - N/A   Partly Cloudy
4:53 AM 75.0 °F - 73.9 °F 96% 30.02 in 10.0 mi Calm Calm - N/A   Clear
5:53 AM 75.0 °F - 73.9 °F 96% 30.03 in 8.0 mi NE 3.5 mph - N/A   Clear
6:53 AM 73.9 °F - 73.9 °F 100% 30.04 in 9.0 mi Calm Calm - N/A   Clear
7:53 AM 75.9 °F - 75.0 °F 97% 30.06 in 9.0 mi NE 3.5 mph - N/A   Clear
8:53 AM 81.0 °F 87.9 °F 77.0 °F 88% 30.06 in 10.0 mi Calm Calm - N/A   Clear
9:53 AM 84.9 °F 93.3 °F 75.0 °F 72% 30.06 in 10.0 mi Variable 3.5 mph - N/A   Scattered Clouds
10:53 AM 87.1 °F 94.5 °F 73.0 °F 63% 30.07 in 10.0 mi Calm Calm - N/A   Mostly Cloudy
11:53 AM 91.0 °F 97.6 °F 71.1 °F 52% 30.06 in 10.0 mi Variable 5.8 mph - N/A   Scattered Clouds
12:53 PM 91.9 °F 98.4 °F 71.1 °F 50% 30.04 in 10.0 mi Variable 3.5 mph - N/A   Scattered Clouds
1:53 PM 95.0 °F 99.5 °F 68.0 °F 41% 30.01 in 10.0 mi NE 9.2 mph - N/A   Partly Cloudy
2:53 PM 97.0 °F 101.0 °F 66.9 °F 37% 29.99 in 10.0 mi East 10.4 mph 19.6 mph N/A   Clear
3:53 PM 99.0 °F 102.9 °F 66.0 °F 34% 29.96 in 10.0 mi ENE 13.8 mph 17.3 mph N/A   Scattered Clouds
4:53 PM 98.1 °F 99.6 °F 63.0 °F 31% 29.94 in 10.0 mi East 13.8 mph 19.6 mph N/A   Partly Cloudy
5:53 PM 96.1 °F 96.4 °F 61.0 °F 31% 29.94 in 10.0 mi ESE 12.7 mph 17.3 mph N/A   Clear
6:53 PM 91.9 °F 95.4 °F 66.9 °F 44% 29.95 in 10.0 mi ESE 15.0 mph 21.9 mph N/A   Clear
7:53 PM 88.0 °F 92.1 °F 69.1 °F 53% 29.96 in 10.0 mi SE 12.7 mph - N/A   Clear
8:53 PM 82.9 °F 88.0 °F 72.0 °F 69% 29.97 in 10.0 mi SSE 5.8 mph - N/A   Clear
9:53 PM 81.0 °F 85.8 °F 73.0 °F 77% 29.99 in 10.0 mi SSE 5.8 mph - N/A   Clear
10:53 PM 79.0 °F - 73.9 °F 84% 29.99 in 10.0 mi South 3.5 mph - N/A   Clear
11:53 PM 78.1 °F - 73.9 °F 87% 29.99 in 10.0 mi SSW 4.6 mph - N/A   Clear